Regional Weather Roundup
Issued by NWS

Home | Current Version | Previous Version | Text Only | Print | Product List | Glossary On
Versions: 1 2 3 4 5 6 7 8 9 10 11 12 13 14 15 16 17 18 19 20 21 22 23 24 25 26 27 28 29 30 31 32 33 34 35 36 37 38 39 40 41 42 43 44 45 46 47 48 49 50
000
ASUS43 KLSX 012157
RWRMO

WEATHER SUMMARY FOR MISSOURI
NATIONAL WEATHER SERVICE SPRINGFIELD MO
500 PM CDT SUN MAY 01 2016

NOTE: "FAIR" INDICATES FEW OR NO CLOUDS BELOW 12,000 FEET WITH NO
       SIGNIFICANT WEATHER AND/OR OBSTRUCTIONS TO VISIBILITY.
       CURRENT SKY AND/OR WEATHER CONDITIONS ARE NOT AVAILABLE FOR
       CHILLICOTHE AND FARMINGTON.

MOZ001>031-035>038-043-044-053-054-012300-
...NORTHERN AND WESTERN MISSOURI...

CITY           SKY/WX    TMP DP  RH WIND       PRES   REMARKS
KANSAS CTY INT PTSUNNY   56  46  69 NW12      30.04R
LEE`S SUMMIT   CLOUDY    57  47  69 NW13      30.04R
ST JOSEPH      CLOUDY    52  45  77 NW15      30.06S
CHILLICOTHE      N/A     53  47  79 NW9G16    30.04R

$$
MOZ066>068-077>081-088>096-101>105-012300-
...SOUTHWEST MISSOURI...

CITY           SKY/WX    TMP DP  RH WIND       PRES   REMARKS
SPRINGFIELD    MOSUNNY   63  44  50 W8        30.01S
JOPLIN         PTSUNNY   61  45  55 NW13G22   30.03F
BRANSON        MOSUNNY   68  46  45 W7        30.00R

$$
MOZ032>034-039>042-045>050-055>058-069>072-012300-
...CENTRAL MISSOURI...

CITY           SKY/WX    TMP DP  RH WIND       PRES   REMARKS
COLUMBIA       NOT AVBL
JEFFERSON CITY PTSUNNY   65  45  48 W10       29.97S
ROLLA          MOSUNNY   66  47  50 NW12      29.95S
SEDALIA        MOSUNNY   62  46  55 NW12      30.00S
WARRENSBURG    CLOUDY    59  46  63 NW6       30.02R

$$
MOZ051-052-059>065-012300-
...EAST CENTRAL MISSOURI...

CITY           SKY/WX    TMP DP  RH WIND       PRES   REMARKS
ST LOUIS INTL  PTSUNNY   71  58  63 NW10      29.90S

$$
MOZ072>076-082>087-097>100-106>115-012300-
...SOUTH CENTRAL AND SOUTHEAST MISSOURI...

CITY           SKY/WX    TMP DP  RH WIND       PRES   REMARKS
CAPE GIRARDEAU SUNNY     79  61  53 SW8       29.88F
POPLAR BLUFF   SUNNY     78  56  46 SW9       29.89F

$$



USA.gov is the U.S. government's official web portal to all federal, state and local government web resources and services.